Location: ???????????
(54.5822°N, 39.1075°E)
Time: 14:23:58
(UTC+00:00)

Cosmos 2322 Rocket - Pass Details

Date: 19 May 2025
Orbit: 832 x 849 km, 71.0° (Epoch: 20 June)

Event Time Altitude Azimuth Distance (km) Brightness Sun altitude
Rises 19:22:38 0° 325° (NW) 3,421 7.5 -11.3°
Reaches altitude 10° 19:25:18 10° 334° (NNW) 2,481 6.2 -11.5°
Maximum altitude 19:30:34 37° 41° (NE) 1,290 3.4 -11.9°
Drops below altitude 10° 19:35:47 10° 109° (ESE) 2,459 4.2 -12.2°
Enters shadow 19:36:34 - 112° (ESE) 2,732 4.4 -12.2°
